"Period start","avg(HW err(1)/warn(2) (#))","avg(Visibility (m))","avg(Weather code (#))","avg(Precip intensity (mm/h))","min(HW err(1)/warn(2) (#))","max(HW err(1)/warn(2) (#))","std(HW err(1)/warn(2) (#))","med(HW err(1)/warn(2) (#))","min(Visibility (m))","max(Visibility (m))","std(Visibility (m))","med(Visibility (m))","min(Weather code (#))","max(Weather code (#))","std(Weather code (#))","med(Weather code (#))","min(Precip intensity (mm/h))","max(Precip intensity (mm/h))","std(Precip intensity (mm/h))","med(Precip intensity (mm/h))"
2013-09-08 00:00:00,2,48160,0,0.00,2,2,0,2,41111,50000,3276,50000,0,0,0,0,0.00,0.00,0.00,0.00
2013-09-08 00:10:00,2,49546,0,0.00,2,2,0,2,46226,50000,1127,50000,0,0,0,0,0.00,0.00,0.00,0.00
2013-09-08 00:20:00,2,49168,0,0.00,2,2,0,2,46034,50000,1408,50000,0,0,0,0,0.00,0.00,0.00,0.00
2013-09-08 00:30:00,2,49958,0,0.00,2,2,0,2,49578,50000,127,50000,0,0,0,0,0.00,0.00,0.00,0.00
2013-09-08 00:40:00,2,50000,0,0.00,2,2,0,2,50000,50000,0,50000,0,0,0,0,0.00,0.00,0.00,0.00
2013-09-08 00:50:00,2,49507,0,0.00,2,2,0,2,48503,50000,617,50000,0,0,0,0,0.00,0.00,0.00,0.00
2013-09-08 01:00:00,2,48619,0,0.00,2,2,0,2,44323,50000,2047,50000,0,0,0,0,0.00,0.00,0.00,0.00
2013-09-08 01:10:00,2,49699,0,0.00,2,2,0,2,47263,50000,816,50000,0,0,0,0,0.00,0.00,0.00,0.00
2013-09-08 01:20:00,2,49491,0,0.00,2,2,0,2,47549,50000,857,50000,0,0,0,0,0.00,0.00,0.00,0.00
2013-09-08 01:30:00,2,50000,0,0.00,2,2,0,2,50000,50000,0,50000,0,0,0,0,0.00,0.00,0.00,0.00
2013-09-08 01:40:00,2,49835,0,0.00,2,2,0,2,48353,50000,494,50000,0,0,0,0,0.00,0.00,0.00,0.00
2013-09-08 01:50:00,2,48051,0,0.00,2,2,0,2,44105,50000,2482,50000,0,0,0,0,0.00,0.00,0.00,0.00
2013-09-08 02:00:00,2,50000,0,0.00,2,2,0,2,50000,50000,0,50000,0,0,0,0,0.00,0.00,0.00,0.00
2013-09-08 02:10:00,2,49888,0,0.00,2,2,0,2,48878,50000,337,50000,0,0,0,0,0.00,0.00,0.00,0.00
2013-09-08 02:20:00,2,49661,0,0.00,2,2,0,2,48158,50000,619,50000,0,0,0,0,0.00,0.00,0.00,0.00
2013-09-08 02:30:00,2,49888,0,0.00,2,2,0,2,48919,50000,323,50000,0,0,0,0,0.00,0.00,0.00,0.00
2013-09-08 02:40:00,2,48466,0,0.00,2,2,0,2,42423,50000,2160,48874,0,0,0,0,0.00,0.00,0.00,0.00
2013-09-08 02:50:00,2,49835,0,0.00,2,2,0,2,48948,50000,345,50000,0,0,0,0,0.00,0.00,0.00,0.00
2013-09-08 03:00:00,2,48984,0,0.00,2,2,0,2,45040,50000,1432,49412,0,0,0,0,0.00,0.00,0.00,0.00
2013-09-08 03:10:00,2,48962,0,0.00,2,2,0,2,45648,50000,1626,50000,0,0,0,0,0.00,0.00,0.00,0.00
2013-09-08 03:20:00,2,46375,0,0.00,2,2,0,2,34140,50000,5063,48874,0,0,0,0,0.00,0.00,0.00,0.00
2013-09-08 03:30:00,2,47826,0,0.00,2,2,0,2,41980,50000,2515,48514,0,0,0,0,0.00,0.00,0.00,0.00
2013-09-08 03:40:00,2,47900,0,0.00,2,2,0,2,42976,50000,2295,48361,0,0,0,0,0.00,0.00,0.00,0.00
2013-09-08 03:50:00,2,49131,0,0.00,2,2,0,2,44461,50000,1818,50000,0,0,0,0,0.00,0.00,0.00,0.00
2013-09-08 04:00:00,2,48352,0,0.00,2,2,0,2,44593,50000,2047,49832,0,0,0,0,0.00,0.00,0.00,0.00
2013-09-08 04:10:00,2,49829,0,0.00,2,2,0,2,48291,50000,513,50000,0,0,0,0,0.00,0.00,0.00,0.00
2013-09-08 04:20:00,2,48444,0,0.00,2,2,0,2,43290,50000,2233,50000,0,0,0,0,0.00,0.00,0.00,0.00
2013-09-08 04:30:00,2,46280,0,0.00,2,2,0,2,39308,50000,4161,48328,0,0,0,0,0.00,0.00,0.00,0.00
2013-09-08 04:40:00,2,47813,0,0.00,2,2,0,2,42711,50000,2519,48715,0,0,0,0,0.00,0.00,0.00,0.00
2013-09-08 04:50:00,2,32313,25,6.79,2,2,0,2,2435,50000,21001,48292,0,63,30,0,0.00,42.85,13.34,0.00
2013-09-08 05:00:00,2,19696,49,4.46,2,2,0,2,9224,47049,12069,13828,0,62,25,61,0.00,12.65,4.25,3.65
2013-09-08 05:10:00,2,47873,0,0.00,2,2,0,2,44294,50000,1942,48616,0,0,0,0,0.00,0.00,0.00,0.00
2013-09-08 05:20:00,2,49854,0,0.00,2,2,0,2,48784,50000,364,50000,0,0,0,0,0.00,0.00,0.00,0.00
2013-09-08 05:30:00,2,49482,0,0.00,2,2,0,2,44819,50000,1554,50000,0,0,0,0,0.00,0.00,0.00,0.00
2013-09-08 05:40:00,2,46730,0,0.00,2,2,0,2,38308,50000,3820,48427,0,0,0,0,0.00,0.00,0.00,0.00
2013-09-08 05:50:00,2,49768,0,0.00,2,2,0,2,48823,50000,396,50000,0,0,0,0,0.00,0.00,0.00,0.00
2013-09-08 06:00:00,2,50000,0,0.00,2,2,0,2,50000,50000,0,50000,0,0,0,0,0.00,0.00,0.00,0.00
2013-09-08 06:10:00,2,27939,48,0.51,2,2,0,2,17315,50000,10146,24000,0,61,24,61,0.00,2.00,0.64,0.17
2013-09-08 06:20:00,2,49259,0,0.00,2,2,0,2,44866,50000,1604,50000,0,0,0,0,0.00,0.00,0.00,0.00
2013-09-08 06:30:00,2,49947,0,0.00,2,2,0,2,49614,50000,119,50000,0,0,0,0,0.00,0.00,0.00,0.00
2013-09-08 06:40:00,2,49780,0,0.00,2,2,0,2,48274,50000,521,50000,0,0,0,0,0.00,0.00,0.00,0.00
2013-09-08 06:50:00,2,27018,33,0.43,2,2,0,2,8765,50000,17011,15956,0,61,27,52,0.00,2.00,0.63,0.17
2013-09-08 07:00:00,2,41073,20,0.02,2,2,0,2,15201,50000,11897,47238,0,51,25,0,0.00,0.10,0.03,0.00
2013-09-08 07:10:00,2,39840,37,0.49,2,2,0,2,26045,50000,8107,39642,0,61,30,61,0.00,1.90,0.61,0.17
2013-09-08 07:20:00,2,44170,24,0.55,2,2,0,2,33864,50000,6085,45361,0,61,30,0,0.00,2.50,0.92,0.00
2013-09-08 07:30:00,2,49407,0,0.00,2,2,0,2,46292,50000,1165,50000,0,0,0,0,0.00,0.00,0.00,0.00
2013-09-08 07:40:00,2,50000,0,0.00,2,2,0,2,50000,50000,0,50000,0,0,0,0,0.00,0.00,0.00,0.00
2013-09-08 07:50:00,2,49123,0,0.00,2,2,0,2,45219,50000,1441,50000,0,0,0,0,0.00,0.00,0.00,0.00
2013-09-08 08:00:00,2,48705,0,0.00,2,2,0,2,43868,50000,2012,50000,0,0,0,0,0.00,0.00,0.00,0.00
2013-09-08 08:10:00,2,49869,0,0.00,2,2,0,2,48689,50000,393,50000,0,0,0,0,0.00,0.00,0.00,0.00
2013-09-08 08:20:00,2,49806,0,0.00,2,2,0,2,48249,50000,522,50000,0,0,0,0,0.00,0.00,0.00,0.00
2013-09-08 08:30:00,2,50000,0,0.00,2,2,0,2,50000,50000,0,50000,0,0,0,0,0.00,0.00,0.00,0.00
2013-09-08 08:40:00,2,48060,0,0.00,2,2,0,2,39994,50000,3136,49994,0,0,0,0,0.00,0.00,0.00,0.00
2013-09-08 08:50:00,2,50000,0,0.00,2,2,0,2,50000,50000,0,50000,0,0,0,0,0.00,0.00,0.00,0.00
2013-09-08 09:00:00,2,49561,0,0.00,2,2,0,2,46994,50000,950,50000,0,0,0,0,0.00,0.00,0.00,0.00
2013-09-08 09:10:00,2,48400,0,0.00,2,2,0,2,44983,50000,1898,49398,0,0,0,0,0.00,0.00,0.00,0.00
2013-09-08 09:20:00,2,49912,0,0.00,2,2,0,2,49116,50000,265,50000,0,0,0,0,0.00,0.00,0.00,0.00
2013-09-08 09:30:00,2,49965,0,0.00,2,2,0,2,49653,50000,104,50000,0,0,0,0,0.00,0.00,0.00,0.00
2013-09-08 09:40:00,2,49934,0,0.00,2,2,0,2,49335,50000,200,50000,0,0,0,0,0.00,0.00,0.00,0.00
2013-09-08 09:50:00,2,47682,0,0.00,2,2,0,2,42587,50000,2711,48452,0,0,0,0,0.00,0.00,0.00,0.00
2013-09-08 10:00:00,2,50000,0,0.00,2,2,0,2,50000,50000,0,50000,0,0,0,0,0.00,0.00,0.00,0.00
2013-09-08 10:10:00,2,50000,0,0.00,2,2,0,2,50000,50000,0,50000,0,0,0,0,0.00,0.00,0.00,0.00
2013-09-08 10:20:00,2,50000,0,0.00,2,2,0,2,50000,50000,0,50000,0,0,0,0,0.00,0.00,0.00,0.00
2013-09-08 10:30:00,2,49486,0,0.00,2,2,0,2,44865,50000,1540,50000,0,0,0,0,0.00,0.00,0.00,0.00
2013-09-08 10:40:00,2,50000,0,0.00,2,2,0,2,50000,50000,0,50000,0,0,0,0,0.00,0.00,0.00,0.00
2013-09-08 10:50:00,2,49568,0,0.00,2,2,0,2,48256,50000,661,50000,0,0,0,0,0.00,0.00,0.00,0.00
2013-09-08 11:00:00,2,49843,0,0.00,2,2,0,2,48823,50000,360,50000,0,0,0,0,0.00,0.00,0.00,0.00
2013-09-08 11:10:00,2,49818,0,0.00,2,2,0,2,48175,50000,548,50000,0,0,0,0,0.00,0.00,0.00,0.00
2013-09-08 11:20:00,2,49977,0,0.00,2,2,0,2,49772,50000,68,50000,0,0,0,0,0.00,0.00,0.00,0.00
2013-09-08 11:30:00,2,50000,0,0.00,2,2,0,2,50000,50000,0,50000,0,0,0,0,0.00,0.00,0.00,0.00
2013-09-08 11:40:00,2,49979,0,0.00,2,2,0,2,49791,50000,63,50000,0,0,0,0,0.00,0.00,0.00,0.00
2013-09-08 11:50:00,2,50000,0,0.00,2,2,0,2,50000,50000,0,50000,0,0,0,0,0.00,0.00,0.00,0.00
2013-09-08 12:00:00,2,49826,0,0.00,2,2,0,2,48256,50000,523,50000,0,0,0,0,0.00,0.00,0.00,0.00
2013-09-08 12:10:00,2,49945,0,0.00,2,2,0,2,49450,50000,165,50000,0,0,0,0,0.00,0.00,0.00,0.00
2013-09-08 12:20:00,2,50000,0,0.00,2,2,0,2,50000,50000,0,50000,0,0,0,0,0.00,0.00,0.00,0.00
2013-09-08 12:30:00,2,50000,0,0.00,2,2,0,2,50000,50000,0,50000,0,0,0,0,0.00,0.00,0.00,0.00
2013-09-08 12:40:00,2,48842,0,0.00,2,2,0,2,44716,50000,1817,50000,0,0,0,0,0.00,0.00,0.00,0.00
2013-09-08 12:50:00,2,48348,0,0.00,2,2,0,2,42433,50000,2490,49901,0,0,0,0,0.00,0.00,0.00,0.00
2013-09-08 13:00:00,2,49314,0,0.00,2,2,0,2,43662,50000,1890,50000,0,0,0,0,0.00,0.00,0.00,0.00
2013-09-08 13:10:00,2,48846,0,0.00,2,2,0,2,44667,50000,1855,50000,0,0,0,0,0.00,0.00,0.00,0.00
2013-09-08 13:20:00,2,50000,0,0.00,2,2,0,2,50000,50000,0,50000,0,0,0,0,0.00,0.00,0.00,0.00
2013-09-08 13:30:00,2,50000,0,0.00,2,2,0,2,50000,50000,0,50000,0,0,0,0,0.00,0.00,0.00,0.00
2013-09-08 13:40:00,2,49589,0,0.00,2,2,0,2,47288,50000,873,50000,0,0,0,0,0.00,0.00,0.00,0.00
2013-09-08 13:50:00,2,49879,0,0.00,2,2,0,2,48789,50000,363,50000,0,0,0,0,0.00,0.00,0.00,0.00
2013-09-08 14:00:00,2,50000,0,0.00,2,2,0,2,50000,50000,0,50000,0,0,0,0,0.00,0.00,0.00,0.00
2013-09-08 14:10:00,2,50000,0,0.00,2,2,0,2,50000,50000,0,50000,0,0,0,0,0.00,0.00,0.00,0.00
2013-09-08 14:20:00,2,49566,0,0.00,2,2,0,2,47396,50000,783,50000,0,0,0,0,0.00,0.00,0.00,0.00
2013-09-08 14:30:00,2,49769,0,0.00,2,2,0,2,48296,50000,523,50000,0,0,0,0,0.00,0.00,0.00,0.00
2013-09-08 14:40:00,2,49703,0,0.00,2,2,0,2,47029,50000,891,50000,0,0,0,0,0.00,0.00,0.00,0.00
2013-09-08 14:50:00,2,49347,0,0.00,2,2,0,2,46199,50000,1153,50000,0,0,0,0,0.00,0.00,0.00,0.00
2013-09-08 15:00:00,2,47214,0,0.00,2,2,0,2,41103,50000,3161,49008,0,0,0,0,0.00,0.00,0.00,0.00
2013-09-08 15:10:00,2,39554,0,0.00,2,2,0,2,34500,43739,2994,40168,0,0,0,0,0.00,0.00,0.00,0.00
2013-09-08 15:20:00,2,38411,0,0.00,2,2,0,2,34517,42209,2459,38717,0,0,0,0,0.00,0.00,0.00,0.00
2013-09-08 15:30:00,2,34967,0,0.00,2,2,0,2,31494,39132,2484,34674,0,0,0,0,0.00,0.00,0.00,0.00
2013-09-08 15:40:00,2,41118,0,0.00,2,2,0,2,37073,45113,2732,41408,0,0,0,0,0.00,0.00,0.00,0.00
2013-09-08 15:50:00,2,39794,0,0.00,2,2,0,2,32776,46013,4651,38400,0,0,0,0,0.00,0.00,0.00,0.00
2013-09-08 16:00:00,2,47481,0,0.00,2,2,0,2,39850,50000,3293,48970,0,0,0,0,0.00,0.00,0.00,0.00
2013-09-08 16:10:00,2,25217,0,0.00,2,2,0,2,13861,41372,10092,22932,0,0,0,0,0.00,0.00,0.00,0.00
2013-09-08 16:20:00,2,25688,0,0.00,2,2,0,2,15592,35628,7454,26555,0,0,0,0,0.00,0.00,0.00,0.00
2013-09-08 16:30:00,2,28330,0,0.00,2,2,0,2,23439,36510,4768,26266,0,0,0,0,0.00,0.00,0.00,0.00
2013-09-08 16:40:00,2,21853,0,0.00,2,2,0,2,19471,23205,1134,21962,0,0,0,0,0.00,0.00,0.00,0.00
2013-09-08 16:50:00,2,14660,0,0.00,2,2,0,2,10730,23262,3512,13582,0,0,0,0,0.00,0.00,0.00,0.00
2013-09-08 17:00:00,2,10264,8,0.04,2,2,0,2,6337,17826,3739,9398,0,40,16,0,0.00,0.30,0.09,0.00
2013-09-08 17:10:00,2,11008,53,0.24,2,2,0,2,5208,25622,5754,9670,51,61,4,51,0.05,0.65,0.16,0.20
2013-09-08 17:20:00,2,23566,51,0.26,2,2,0,2,13094,32699,7134,25236,51,51,0,51,0.05,0.60,0.16,0.28
2013-09-08 17:30:00,2,17098,51,0.30,2,2,0,2,14619,19679,1554,17018,51,51,0,51,0.10,1.00,0.27,0.20
2013-09-08 17:40:00,2,29876,55,0.39,2,2,0,2,16768,37792,7000,31569,51,61,5,51,0.10,0.70,0.18,0.38
2013-09-08 17:50:00,2,43399,59,0.67,2,2,0,2,38078,48969,3747,45172,51,61,4,61,0.05,1.55,0.43,0.55
2013-09-08 18:00:00,2,46306,59,1.65,2,2,0,2,41951,50000,3189,46970,52,61,4,61,0.85,3.45,0.88,1.25
2013-09-08 18:10:00,2,44381,57,0.96,2,2,0,2,33146,50000,6080,46480,51,61,5,61,0.15,2.50,0.78,0.73
2013-09-08 18:20:00,2,42876,61,1.98,2,2,0,2,30434,50000,6941,44912,61,61,0,61,0.60,4.95,1.34,1.70
2013-09-08 18:30:00,2,35777,61,2.93,2,2,0,2,29967,47687,6120,33279,61,61,0,61,1.00,5.45,1.42,2.83
2013-09-08 18:40:00,2,31519,61,2.77,2,2,0,2,16753,44570,9784,32892,61,61,0,61,0.35,7.80,2.14,2.15
2013-09-08 18:50:00,2,42956,61,2.26,2,2,0,2,30896,50000,6462,43661,61,61,0,61,1.20,3.95,0.99,1.95
2013-09-08 19:00:00,2,42758,61,1.90,2,2,0,2,32009,50000,6990,44055,61,61,0,61,0.35,3.85,1.11,2.10
2013-09-08 19:10:00,2,33468,58,1.79,2,2,0,2,21462,49893,11058,28462,52,61,4,61,0.30,3.40,0.98,1.75
2013-09-08 19:20:00,2,11538,61,2.18,2,2,0,2,9158,15859,2271,10921,61,61,0,61,1.25,3.60,0.88,1.88
2013-09-08 19:30:00,2,12331,61,1.35,2,2,0,2,9384,14459,1454,12385,61,61,0,61,0.25,2.35,0.66,1.48
2013-09-08 19:40:00,2,11107,61,1.76,2,2,0,2,9494,12450,788,11033,61,61,0,61,1.25,2.60,0.44,1.60
2013-09-08 19:50:00,2,12988,61,1.91,2,2,0,2,9868,16668,1925,12660,61,61,0,61,1.10,3.30,0.61,1.75
2013-09-08 20:00:00,2,13521,61,1.87,2,2,0,2,10205,16825,1961,13615,61,61,0,61,0.90,3.35,0.76,1.77
2013-09-08 20:10:00,2,10278,61,1.60,2,2,0,2,7767,12705,1521,10442,61,61,0,61,0.90,2.55,0.47,1.48
2013-09-08 20:20:00,2,9459,57,2.92,2,2,0,2,7404,11173,1014,9530,52,61,4,61,1.45,6.10,1.23,2.75
2013-09-08 20:30:00,2,9629,61,3.56,2,2,0,2,8027,11695,985,9486,61,61,0,61,2.50,4.55,0.70,3.45
2013-09-08 20:40:00,2,9674,61,3.46,2,2,0,2,8191,13239,1386,9442,61,61,0,61,1.80,5.10,1.14,3.35
2013-09-08 20:50:00,2,8348,61,3.55,2,2,0,2,6874,9413,696,8460,61,61,0,61,2.20,6.10,1.07,3.38
2013-09-08 21:00:00,2,8918,57,3.33,2,2,0,2,7298,14009,1800,8362,52,61,4,61,1.45,4.95,1.06,3.40
2013-09-08 21:10:00,2,10012,61,3.56,2,2,0,2,8342,12175,1253,9619,61,61,0,61,2.65,5.10,0.78,3.42
2013-09-08 21:20:00,2,12390,55,1.84,2,2,0,2,9851,15236,1986,12088,52,61,4,52,0.85,3.25,0.79,1.82
2013-09-08 21:30:00,2,39353,52,0.58,2,2,0,2,23060,50000,8619,36924,51,52,0,52,0.30,1.05,0.25,0.55
2013-09-08 21:40:00,2,43044,52,0.72,2,2,0,2,36259,50000,5625,42028,51,52,0,52,0.30,1.20,0.29,0.68
2013-09-08 21:50:00,2,27710,52,0.82,2,2,0,2,10191,40136,9513,27033,52,52,0,52,0.55,1.45,0.31,0.68
2013-09-08 22:00:00,2,12168,51,0.36,2,2,0,2,9615,17031,2077,11662,51,52,0,51,0.15,0.75,0.21,0.28
2013-09-08 22:10:00,2,16083,51,0.15,2,2,0,2,13205,22292,2835,14914,51,51,0,51,0.05,0.30,0.07,0.15
2013-09-08 22:20:00,2,21912,51,0.09,2,2,0,2,14492,29047,4907,22366,51,51,0,51,0.05,0.15,0.04,0.10
2013-09-08 22:30:00,2,17187,51,0.19,2,2,0,2,13321,21133,2324,17094,51,51,0,51,0.10,0.25,0.04,0.20
2013-09-08 22:40:00,2,19492,36,0.07,2,2,0,2,13347,28411,4348,19066,0,51,23,51,0.00,0.15,0.06,0.08
2013-09-08 22:50:00,2,46486,0,0.00,2,2,0,2,35927,50000,4378,48740,0,0,0,0,0.00,0.00,0.00,0.00
2013-09-08 23:00:00,2,49651,0,0.00,2,2,0,2,47893,50000,639,50000,0,0,0,0,0.00,0.00,0.00,0.00
2013-09-08 23:10:00,2,50000,0,0.00,2,2,0,2,50000,50000,0,50000,0,0,0,0,0.00,0.00,0.00,0.00
2013-09-08 23:20:00,2,50000,0,0.00,2,2,0,2,50000,50000,0,50000,0,0,0,0,0.00,0.00,0.00,0.00
2013-09-08 23:30:00,2,42271,0,0.00,2,2,0,2,27499,50000,7626,44376,0,0,0,0,0.00,0.00,0.00,0.00
2013-09-08 23:40:00,2,50000,0,0.00,2,2,0,2,50000,50000,0,50000,0,0,0,0,0.00,0.00,0.00,0.00
2013-09-08 23:50:00,2,47865,0,0.00,2,2,0,2,42108,50000,3073,50000,0,0,0,0,0.00,0.00,0.00,0.00
